Okean 1-7 - Orbit

View from above orbital plane
View from above orbital plane
View from above satellite
View from above satellite

Ground track
Ground track

The orbit data is extracted from the following two-line orbital elements,

1 23317U 94066A   13140.50160321  .00001139  00000-0  13219-3 0  2231
2 23317 082.5402 075.7057 0019804 320.7494 157.7281 14.84442855  4832
Epoch (UTC): 20 May 2013 12:02:18
Eccentricity: 0.0019804
inclination: 82.5402°
perigee height: 601 km
apogee height: 629 km
right ascension of ascending node: 75.7057°
argument of perigee: 320.7494°
revolutions per day: 14.84442855
mean anomaly at epoch: 157.7281°
orbit number at epoch: 483

The dashed part of the orbit path shows where the satellite is in the earth's shadow,  

Developed and maintained by Chris Peat, Heavens-Above GmbH. Please read the updated FAQ before sending e-mail. Imprint. DLR